Home > Weather > Cheboksary > Past weeks

Flag for Russia Weather for the Past 2 Weeks in Cheboksary, Russia

Now
21 °F

Clear.


Feels Like: 14 °F
Forecast: 18 / 24 °F
Wind: 6 mph from South

Location: Kazan'

Current Time: Feb 9, 2016 at 2:27:45 AM

Latest Report: Feb 9, 2016 at 2:00 AM


Visibility: 10 mi

Pressure: 30.15 "Hg

Humidity: 86%

Dew point: 18 °F

Location of CheboksaryLocation

Historic Weather in Cheboksary — Graph

°F

Cheboksary Temperature Yesterday

Maximum temperature yesterday: 28 °F (at 5:30 PM)
Minimum temperature yesterday: 12 °F (at 1:30 AM)
Average temperature yesterday: 22 °F

High & Low Weather Summary for the Past Weeks

 TemperatureHumidityPressure
High36 °F (Jan 31, 1:30 PM)100% (Jan 30, 6:00 AM)30.33 "Hg (Jan 30, 6:00 AM)
Low-24 °F (Jan 27, 4:00 AM)64% (Feb 5, 3:00 PM)29.39 "Hg (Feb 3, 9:30 PM)
Average16 °F89%29.89 "Hg
* Reported Jan 25 1:00 AM — Feb 9 1:00 AM, Cheboksary, Weather by CustomWeather, © 2016

Note: Actual official high and low records may vary slightly from our data, if they occured in-between our weather recording intervals... More about our weather records

Advertising

Cheboksary Weather History for the Previous 24 Hours

 ConditionsComfort  
Time TempWeatherWind HumidityBarometerVisibility
1:00 AM
Tue, Feb 9
21 °FClear.6 mph86%30.15 "Hg10 mi
12:30 AM21 °FClear.6 mph93%30.15 "Hg10 mi
12:00 AM21 °FClear.6 mph93%30.15 "Hg10 mi
11:30 PM
Mon, Feb 8
21 °FClear.6 mph86%30.15 "Hg10 mi
11:00 PM23 °FClear.6 mph93%30.15 "Hg10 mi
10:30 PM21 °FClear.6 mph93%30.15 "Hg10 mi
10:00 PM23 °FClear.6 mph93%30.15 "Hg10 mi
9:30 PM21 °FClear.3 mph100%30.12 "Hg10 mi
9:00 PM23 °FClear.3 mph93%30.15 "Hg10 mi
8:30 PM27 °FPassing clouds.3 mph93%30.12 "HgN/A
8:00 PM27 °FPassing clouds.3 mph93%30.12 "HgN/A
7:30 PM28 °FClear.6 mph86%30.12 "Hg10 mi
7:00 PM28 °FClear.8 mph86%30.12 "Hg10 mi
6:30 PM28 °FClear.6 mph93%30.12 "Hg10 mi
6:00 PM27 °FOvercast.6 mph93%30.12 "HgN/A
5:30 PM28 °FOvercast.3 mph93%30.12 "HgN/A
5:00 PM27 °FOvercast.3 mph100%30.12 "HgN/A
4:30 PM27 °FOvercast.3 mph93%30.12 "HgN/A
4:00 PM27 °FOvercast.6 mph93%30.12 "HgN/A
3:30 PM27 °FOvercast.3 mph93%30.09 "HgN/A
3:00 PM27 °FOvercast.3 mph93%30.09 "HgN/A
2:30 PM27 °FOvercast.6 mph93%30.12 "HgN/A
2:00 PM27 °FLight snow. Overcast.6 mph93%30.09 "HgN/A
1:30 PM25 °FLight snow. Overcast.6 mph100%30.12 "HgN/A
1:00 PM25 °FLight snow. Overcast.6 mph100%30.12 "Hg2 mi
12:30 PM25 °FLight snow. Overcast.8 mph93%30.12 "Hg2 mi
12:00 PM25 °FLight snow. Overcast.8 mph93%30.12 "Hg2 mi
11:30 AM25 °FLight snow. Overcast.8 mph93%30.12 "Hg2 mi
11:00 AM23 °FLight snow. Overcast.10 mph100%30.12 "Hg2 mi
10:30 AM23 °FSnow. Overcast.10 mph93%30.12 "Hg1 mi
10:00 AM23 °FSnow. Overcast.10 mph93%30.12 "Hg1 mi
9:30 AM21 °FSnow. Overcast.10 mph100%30.12 "Hg1 mi
9:00 AM21 °FSnow. Overcast.10 mph93%30.15 "Hg1 mi
8:30 AM21 °FLight snow. Overcast.10 mph93%30.15 "Hg1 mi
8:00 AM19 °FLight snow. Overcast.10 mph93%30.15 "Hg1 mi
7:30 AM19 °FSnow. Overcast.10 mph93%30.15 "Hg1 mi
7:00 AM19 °FLight snow. Passing clouds.10 mph93%30.15 "Hg2 mi
6:30 AM18 °FLight snow. Passing clouds.10 mph93%30.15 "Hg6 mi
6:00 AM18 °FPassing clouds.10 mph86%30.15 "HgN/A
5:30 AM18 °FPassing clouds.10 mph86%30.15 "HgN/A
5:00 AM16 °FPassing clouds.8 mph86%30.18 "HgN/A
4:00 AM16 °FPassing clouds.8 mph86%30.18 "HgN/A
3:30 AM14 °FPassing clouds.8 mph85%30.18 "HgN/A
2:30 AM14 °FPassing clouds.6 mph85%30.18 "HgN/A
2:00 AM12 °FPassing clouds.3 mph85%30.21 "HgN/A
Weather by CustomWeather, © 2016

See weather overviewHow to use our weather pages